Tulsa Jones, OK

8:34 PM CDT on July 24, 2017 (GMT -0500)
Jones Jr.

Weather History for KRVS - October, 2013

Change the Weather History Date:

Saturday, October 5, 2013

  Actual Average (KTUL) Record (KTUL)
Temperature  
Mean Temperature 64 °F -  
Max Temperature 77 °F 76 °F 95 °F (1947)
Min Temperature 46 °F 54 °F 37 °F (1964)
Degree Days  
Heating Degree Days 1    
Growing Degree Days 14 (Base 50)    
Moisture  
Dew Point 50 °F    
Average Humidity 76    
Maximum Humidity 100    
Minimum Humidity 37    
Precipitation  
Precipitation 0.61 in - - ()
Sea Level Pressure  
Sea Level Pressure 30.02 in    
Wind  
Wind Speed 5 mph (NNW)    
Max Wind Speed 12 mph    
Max Gust Speed 23 mph    
Visibility 9 miles    
Events Rain , Thunderstorm    
Averages and records for this station are not official NWS values.
T = Trace of Precipitation, MM = Missing Value Source: NWS Daily Summary

Daily Weather History Graph

Daily Weather History Graph

Search for Another Location

Airport or City:

Trip Planner

Search our weather history database for the weather conditions in past years. The results will help you decide how hot, cold, wet, or windy it might be!

Date:

Astronomy

Oct. 05, 2013 Rise Set
Actual Time 7:22 AM CDT 7:01 PM CDT
Civil Twilight 6:56 AM CDT 7:26 PM CDT
Nautical Twilight 6:27 AM CDT 7:56 PM CDT
Astronomical Twilight 5:57 AM CDT 8:26 PM CDT
Moon 8:00 AM CDT (10/5) 7:24 PM CDT (10/5)
Length of Visible Light 12h 30m
Length of Day
11h 38m
New Moon, 1% of the Moon is Illuminated
Oct 5
New Moon
Oct 11
First Quarter
Oct 18
Full
Oct 26
Last Quarter
Nov 3
New

Hourly Weather History & Observations

Time (CDT) Temp. Dew Point Humidity Pressure Visibility Wind Dir Wind Speed Gust Speed Precip Events Conditions
12:53 AM 78.1 °F 66.9 °F 68% 29.88 in 10.0 mi SSE 5.8 mph - N/A   Mostly Cloudy
1:53 AM 70.0 °F 66.0 °F 87% 29.94 in 9.0 mi Variable 5.8 mph - 0.02 in Rain , Thunderstorm Light Thunderstorms and Rain
2:02 AM 68.0 °F 66.2 °F 94% 29.93 in 1.8 mi Variable 4.6 mph - 0.14 in Rain , Thunderstorm Heavy Thunderstorms and Rain
2:12 AM 66.2 °F 66.2 °F 100% 29.93 in 3.0 mi NW 5.8 mph - 0.18 in Rain , Thunderstorm Thunderstorms and Rain
2:53 AM 66.9 °F 64.9 °F 93% 29.94 in 10.0 mi Calm Calm - 0.24 in Rain , Thunderstorm Light Rain
3:00 AM 66.2 °F 64.4 °F 94% 29.92 in 6.0 mi Calm Calm - 0.03 in Rain Rain
3:10 AM 66.2 °F 64.4 °F 94% 29.92 in 2.5 mi Variable 3.5 mph - 0.14 in Rain Heavy Rain
3:17 AM 66.2 °F 64.4 °F 94% 29.92 in 10.0 mi Variable 3.5 mph - 0.14 in Rain Light Rain
3:23 AM 66.2 °F 64.4 °F 94% 29.92 in 10.0 mi Variable 3.5 mph - 0.14 in Rain Light Rain
3:53 AM 57.0 °F 55.0 °F 93% 29.99 in 10.0 mi NNW 11.5 mph 19.6 mph 0.14 in   Overcast
4:01 AM 55.4 °F 53.6 °F 94% 29.98 in 10.0 mi NNW 10.4 mph 20.7 mph N/A   Overcast
4:29 AM 55.4 °F 51.8 °F 88% 29.98 in 10.0 mi North 6.9 mph 23.0 mph 0.00 in   Overcast
4:41 AM 53.6 °F 50.0 °F 88% 30.01 in 7.0 mi North 11.5 mph 17.3 mph 0.02 in Rain , Thunderstorm Rain
4:53 AM 52.0 °F 48.0 °F 86% 30.01 in 3.0 mi North 10.4 mph 18.4 mph 0.14 in Rain , Thunderstorm Heavy Thunderstorms and Rain
5:30 AM 51.8 °F 46.4 °F 82% 29.97 in 6.0 mi North 9.2 mph - 0.04 in Rain Rain
5:53 AM 51.1 °F 46.9 °F 86% 30.02 in 10.0 mi North 6.9 mph - 0.05 in   Mostly Cloudy
6:53 AM 51.1 °F 46.0 °F 83% 30.04 in 10.0 mi Variable 5.8 mph - 0.02 in   Scattered Clouds
7:53 AM 52.0 °F 45.0 °F 77% 30.08 in 10.0 mi NNW 5.8 mph - N/A   Overcast
8:53 AM 52.0 °F 45.0 °F 77% 30.09 in 10.0 mi NNW 5.8 mph - 0.00 in   Overcast
9:53 AM 53.1 °F 42.1 °F 66% 30.14 in 10.0 mi Variable 5.8 mph - N/A   Overcast
10:53 AM 53.1 °F 42.1 °F 66% 30.14 in 10.0 mi North 3.5 mph - N/A   Overcast
11:53 AM 55.0 °F 41.0 °F 59% 30.13 in 10.0 mi Variable 6.9 mph 16.1 mph N/A   Overcast
12:53 PM 60.1 °F 43.0 °F 53% 30.12 in 10.0 mi NW 6.9 mph - N/A   Partly Cloudy
1:53 PM 64.0 °F 42.1 °F 45% 30.10 in 10.0 mi Variable 5.8 mph - N/A   Clear
2:53 PM 64.9 °F 42.1 °F 43% 30.07 in 10.0 mi Variable 5.8 mph - N/A   Clear
3:53 PM 66.9 °F 41.0 °F 39% 30.06 in 10.0 mi Variable 4.6 mph - N/A   Clear
4:53 PM 66.0 °F 39.0 °F 37% 30.05 in 10.0 mi WNW 8.1 mph - N/A   Clear
5:53 PM 64.9 °F 39.9 °F 40% 30.06 in 10.0 mi Variable 3.5 mph - N/A   Clear
6:53 PM 61.0 °F 39.9 °F 46% 30.05 in 10.0 mi Calm Calm - N/A   Clear
7:53 PM 53.1 °F 46.0 °F 77% 30.05 in 10.0 mi Calm Calm - N/A   Clear
8:53 PM 50.0 °F 46.0 °F 86% 30.06 in 10.0 mi Calm Calm - N/A   Clear
9:53 PM 52.0 °F 45.0 °F 77% 30.07 in 10.0 mi Calm Calm - N/A   Clear
10:53 PM 50.0 °F 46.0 °F 86% 30.07 in 10.0 mi Calm Calm - N/A   Clear
11:53 PM 46.9 °F 45.0 °F 93% 30.06 in 10.0 mi Calm Calm - N/A   Clear